EW1613 Weather Reports


Display with metric or nautical units.
time (UTC)temp
F
wind
direction
speed
MPH
gust
MPH
rain 1hr
in
rain 24hr
in
rain mn
in
humidity
%
barometer
mb
20260901041622 71 34 0.0 0.0 0.00 0.00 0.00 70 1017.0
20260901041101 71 34 0.0 0.0 0.00 0.00 0.00 70 1016.9
20260901040556 72 34 0.0 0.0 0.00 0.00 0.00 70 1016.9
20260901040050 72 34 0.0 0.0 0.00 0.00 0.00 70 1016.8
20260901035551 72 34 0.0 0.0 0.00 0.00 0.00 70 1016.9
20260901035051 72 34 0.0 0.0 0.00 0.00 0.00 69 1016.8
20260901034544 72 34 0.0 0.0 0.00 0.00 0.00 69 1016.7
20260901034105 72 34 0.0 0.0 0.00 0.00 0.00 68 1016.7
20260901033605 72 34 0.0 0.0 0.00 0.00 0.00 68 1016.6
20260901033059 72 34 0.0 0.0 0.00 0.00 0.00 69 1016.6
20260901032600 72 34 0.0 1.0 0.00 0.00 0.00 68 1016.5
20260901032054 72 34 0.0 3.0 0.00 0.00 0.00 68 1016.5
20260901031548 73 35 1.0 4.0 0.00 0.00 0.00 68 1016.5
20260901031109 73 40 1.0 4.0 0.00 0.00 0.00 67 1016.4
20260901030548 73 53 2.0 4.0 0.00 0.00 0.00 67 1016.5
20260901030048 73 46 2.0 3.0 0.00 0.00 0.00 67 1016.5
20260901025558 73 35 1.0 3.0 0.00 0.00 0.00 67 1016.5
20260901025059 73 31 1.0 3.0 0.00 0.00 0.00 67 1016.6
20260901024548 73 22 0.0 2.0 0.00 0.00 0.00 68 1016.6
20260901024048 73 22 0.0 4.0 0.00 0.00 0.00 68 1016.7
20260901023609 73 22 2.0 4.0 0.00 0.00 0.00 68 1016.7
20260901023044 73 31 1.0 4.0 0.00 0.00 0.00 68 1016.7
20260901022604 73 57 1.0 3.0 0.00 0.00 0.00 68 1016.6
20260901022055 74 57 0.0 2.0 0.00 0.00 0.00 70 1016.6
20260901021555 74 57 0.0 1.0 0.00 0.00 0.00 71 1016.6
20260901021049 74 57 0.0 1.0 0.00 0.00 0.00 70 1016.5
20260901020549 74 57 0.0 1.0 0.00 0.00 0.00 70 1016.5
20260901020050 75 57 0.0 3.0 0.00 0.00 0.00 70 1016.4
20260901015603 75 57 1.0 3.0 0.00 0.00 0.00 69 1016.4
20260901015104 75 57 1.0 3.0 0.00 0.00 0.00 70 1016.4
20260901014558 75 61 1.0 3.0 0.00 0.00 0.00 69 1016.3
20260901014058 75 57 1.0 3.0 0.00 0.00 0.00 70 1016.3
20260901013551 75 55 1.0 4.0 0.00 0.00 0.00 70 1016.3
20260901013050 76 53 1.0 5.0 0.00 0.00 0.00 70 1016.3
20260901012544 76 85 2.0 6.0 0.00 0.00 0.00 71 1016.2
20260901012045 76 67 4.0 6.0 0.00 0.00 0.00 70 1016.2
20260901011605 76 60 2.0 8.0 0.00 0.00 0.00 71 1016.2
20260901011058 76 51 3.0 10.0 0.00 0.00 0.00 72 1016.2
20260901010552 76 47 5.0 10.0 0.00 0.00 0.00 73 1016.2
20260901010053 76 82 5.0 11.0 0.00 0.00 0.00 74 1016.2
20260901005547 76 65 5.0 10.0 0.00 0.00 0.00 76 1016.1
20260901005048 76 71 4.0 10.0 0.00 0.00 0.00 77 1016.0
20260901004609 76 79 4.0 13.0 0.00 0.00 0.00 78 1016.0
20260901004103 76 60 7.0 13.0 0.00 0.00 0.00 79 1016.0
20260901003556 76 71 4.0 13.0 0.00 0.00 0.00 81 1016.0
20260901003057 76 91 6.0 11.0 0.00 0.00 0.00 82 1015.9
20260901002551 75 92 5.0 10.0 0.00 0.00 0.00 83 1015.9
20260901002051 75 53 5.0 9.0 0.00 0.00 0.00 84 1015.9
20260901001545 75 68 3.0 5.0 0.00 0.00 0.00 84 1015.8
20260901001045 75 71 3.0 5.0 0.00 0.00 0.00 84 1015.8
20260901000606 75 52 3.0 5.0 0.00 0.00 0.00 84 1015.8
20260901000105 75 55 3.0 6.0 0.00 0.00 0.00 84 1015.7
20260831235558 75 57 3.0 6.0 0.00 0.00 0.00 85 1015.6
20260831235101 75 50 1.0 6.0 0.00 0.00 0.00 85 1015.6
20260831234553 75 49 3.0 6.0 0.00 0.00 0.00 85 1015.5
20260831234047 74 59 3.0 6.0 0.00 0.00 0.00 85 1015.4
20260831233608 74 73 3.0 5.0 0.00 0.00 0.00 85 1015.4
20260831233107 74 57 2.0 4.0 0.00 0.00 0.00 85 1015.3
20260831232622 74 60 1.0 3.0 0.00 0.00 0.00 85 1015.2
20260831232101 74 51 0.0 3.0 0.00 0.00 0.00 84 1015.2
20260831231556 74 51 1.0 3.0 0.00 0.00 0.00 84 1015.0
20260831231050 74 49 0.0 4.0 0.00 0.00 0.00 84 1015.0
20260831230550 74 50 2.0 4.0 0.00 0.00 0.00 84 1015.0
20260831230044 74 57 2.0 4.0 0.00 0.00 0.00 83 1014.9
20260831225545 75 17 1.0 5.0 0.00 0.00 0.00 83 1014.8
20260831225106 75 15 1.0 5.0 0.00 0.00 0.00 83 1014.8
20260831224559 75 12 1.0 4.0 0.00 0.00 0.00 82 1014.8
20260831224059 75 355 1.0 3.0 0.00 0.00 0.00 82 1014.7
20260831223553 75 355 1.0 3.0 0.00 0.00 0.00 81 1014.6
20260831223054 75 355 0.0 4.0 0.00 0.00 0.00 81 1014.5
20260831222549 75 355 1.0 4.0 0.00 0.00 0.00 81 1014.5
20260831222110 76 17 0.0 3.0 0.00 0.00 0.00 80 1014.4
20260831221609 76 17 0.0 4.0 0.00 0.00 0.00 80 1014.4
20260831221103 76 23 2.0 4.0 0.00 0.00 0.00 79 1014.5
20260831220603 76 32 0.0 2.0 0.00 0.00 0.00 78 1014.3
20260831220117 76 32 0.0 2.0 0.00 0.00 0.00 78 1014.3
20260831215556 77 32 1.0 4.0 0.00 0.00 0.00 78 1014.3
20260831215057 77 34 1.0 4.0 0.00 0.00 0.00 77 1014.3
20260831214551 78 28 2.0 3.0 0.00 0.00 0.00 76 1014.3
20260831214112 78 49 1.0 2.0 0.00 0.00 0.00 75 1014.2
20260831213612 78 50 0.0 3.0 0.00 0.00 0.00 74 1014.1
20260831213044 79 50 1.0 3.0 0.00 0.00 0.00 74 1014.1
20260831212605 79 142 0.0 4.0 0.00 0.00 0.00 73 1014.0
20260831212105 79 142 1.0 4.0 0.00 0.00 0.00 73 1013.8
20260831211625 79 142 1.0 3.0 0.00 0.00 0.00 73 1013.8
20260831211052 79 137 0.0 3.0 0.00 0.00 0.00 72 1013.8
20260831210553 80 136 1.0 3.0 0.00 0.00 0.00 72 1013.7
20260831210047 80 131 0.0 5.0 0.00 0.00 0.00 71 1013.7
20260831205548 80 128 2.0 5.0 0.00 0.00 0.00 71 1013.6
20260831205109 80 123 1.0 2.0 0.00 0.00 0.00 71 1013.5
20260831204628 80 123 0.0 2.0 0.00 0.00 0.00 70 1013.7
20260831204100 80 123 0.0 2.0 0.00 0.00 0.00 70 1013.6
20260831203600 80 123 0.0 2.0 0.00 0.00 0.00 70 1013.5
20260831203101 80 123 0.0 3.0 0.00 0.00 0.00 70 1013.6
20260831202622 80 123 0.0 4.0 0.00 0.00 0.00 70 1013.5
20260831202055 80 121 2.0 5.0 0.00 0.00 0.00 70 1013.4
20260831201546 80 135 3.0 7.0 0.00 0.00 0.00 70 1013.3
20260831201106 81 133 2.0 7.0 0.00 0.00 0.00 69 1013.2
20260831200546 81 151 3.0 9.0 0.00 0.00 0.00 69 1013.2
20260831200106 81 161 4.0 9.0 0.00 0.00 0.00 69 1013.2
20260831195600 81 178 3.0 8.0 0.00 0.00 0.00 69 1013.2
20260831195053 81 196 3.0 7.0 0.00 0.00 0.00 69 1013.2
20260831194554 81 198 4.0 7.0 0.00 0.00 0.00 69 1013.1
20260831194048 81 136 2.0 6.0 0.00 0.00 0.00 69 1013.1
20260831193550 81 139 3.0 6.0 0.00 0.00 0.00 69 1013.1
20260831193043 81 159 2.0 7.0 0.00 0.00 0.00 69 1013.1
20260831192543 82 164 3.0 9.0 0.00 0.00 0.00 68 1013.0
20260831192056 82 189 4.0 9.0 0.00 0.00 0.00 68 1013.0
20260831191557 82 155 3.0 8.0 0.00 0.00 0.00 68 1012.9
20260831191051 82 184 2.0 8.0 0.00 0.00 0.00 68 1012.9
20260831190552 82 152 3.0 7.0 0.00 0.00 0.00 67 1012.9
20260831190113 83 143 3.0 7.0 0.00 0.00 0.00 67 1012.8
20260831185545 83 143 3.0 8.0 0.00 0.00 0.00 66 1012.7
20260831185106 83 146 1.0 9.0 0.00 0.00 0.00 66 1012.7
20260831184600 83 186 4.0 9.0 0.00 0.00 0.00 65 1012.7
20260831184122 84 141 3.0 8.0 0.00 0.00 0.00 64 1012.6
20260831183603 84 149 2.0 8.0 0.00 0.00 0.00 64 1012.6
20260831183057 85 169 2.0 8.0 0.00 0.00 0.00 63 1012.5
20260831182551 85 131 3.0 7.0 0.00 0.00 0.00 61 1012.5
20260831182051 86 182 2.0 9.0 0.00 0.00 0.00 59 1012.4
20260831181546 86 138 3.0 9.0 0.00 0.00 0.00 56 1012.3
20260831181046 87 177 0.0 3.0 0.00 0.00 0.00 54 1012.3
20260831180601 87 180 1.0 4.0 0.00 0.00 0.00 53 1012.2
20260831180054 87 182 2.0 4.0 0.00 0.00 0.00 53 1012.2
20260831175555 88 181 2.0 5.0 0.00 0.00 0.00 52 1012.2
20260831175048 88 188 2.0 5.0 0.00 0.00 0.00 51 1012.2
20260831174549 88 183 2.0 4.0 0.00 0.00 0.00 51 1012.1
20260831174102 89 176 2.0 4.0 0.00 0.00 0.00 51 1012.1
20260831173624 89 180 1.0 3.0 0.00 0.00 0.00 51 1012.2
20260831173103 89 196 0.0 2.0 0.00 0.00 0.00 50 1012.2
20260831172555 90 198 1.0 4.0 0.00 0.00 0.00 50 1012.2
20260831172056 90 198 3.0 4.0 0.00 0.00 0.00 49 1012.2
20260831171549 90 181 2.0 4.0 0.00 0.00 0.00 49 1012.3
20260831171051 90 194 2.0 4.0 0.00 0.00 0.00 49 1012.3
20260831170544 90 200 2.0 4.0 0.00 0.00 0.00 49 1012.3
20260831170045 91 191 1.0 4.0 0.00 0.00 0.00 49 1012.4
20260831165605 91 186 3.0 6.0 0.00 0.00 0.00 49 1012.4
20260831165059 91 205 3.0 6.0 0.00 0.00 0.00 48 1012.4
20260831164559 91 194 4.0 6.0 0.00 0.00 0.00 48 1012.5
20260831164053 91 207 2.0 6.0 0.00 0.00 0.00 48 1012.6
20260831163553 91 182 3.0 6.0 0.00 0.00 0.00 48 1012.6
20260831163047 91 184 2.0 7.0 0.00 0.00 0.00 48 1012.5
20260831162608 91 209 5.0 7.0 0.00 0.00 0.00 47 1012.6
20260831162102 91 186 3.0 6.0 0.00 0.00 0.00 48 1012.7
20260831161602 91 233 3.0 8.0 0.00 0.00 0.00 48 1012.7
20260831161122 91 205 5.0 8.0 0.00 0.00 0.00 47 1012.7
20260831160554 92 248 4.0 8.0 0.00 0.00 0.00 47 1012.7
20260831160055 92 239 4.0 8.0 0.00 0.00 0.00 47 1012.7
20260831155548 92 209 4.0 8.0 0.00 0.00 0.00 46 1012.7
20260831155048 92 200 4.0 8.0 0.00 0.00 0.00 47 1012.7
20260831154609 92 244 3.0 10.0 0.00 0.00 0.00 47 1012.8
20260831154108 92 215 6.0 10.0 0.00 0.00 0.00 46 1012.8
20260831153618 92 211 5.0 11.0 0.00 0.00 0.00 46 1012.8
20260831153057 92 240 5.0 11.0 0.00 0.00 0.00 46 1012.8
20260831152552 92 243 7.0 10.0 0.00 0.00 0.00 46 1012.8
20260831152052 92 252 2.0 10.0 0.00 0.00 0.00 46 1012.9
20260831151546 92 233 6.0 11.0 0.00 0.00 0.00 45 1012.9
20260831151047 92 207 5.0 11.0 0.00 0.00 0.00 45 1012.9
20260831150607 93 237 6.0 11.0 0.00 0.00 0.00 45 1012.9
20260831150101 93 233 5.0 10.0 0.00 0.00 0.00 45 1012.9
20260831145601 93 201 4.0 9.0 0.00 0.00 0.00 45 1013.0
20260831145055 93 238 4.0 7.0 0.00 0.00 0.00 45 1013.0
20260831144556 93 172 3.0 6.0 0.00 0.00 0.00 46 1013.0
20260831144048 92 226 3.0 11.0 0.00 0.00 0.00 48 1013.0
20260831143549 92 238 4.0 11.0 0.00 0.00 0.00 46 1013.0
20260831143106 92 241 6.0 11.0 0.00 0.00 0.00 46 1013.1
20260831142601 92 216 3.0 8.0 0.00 0.00 0.00 46 1013.0
20260831142102 92 198 3.0 10.0 0.00 0.00 0.00 46 1013.0
20260831141546 92 243 7.0 10.0 0.00 0.00 0.00 45 1013.1
20260831141107 92 184 4.0 13.0 0.00 0.00 0.00 46 1013.1
20260831140601 92 235 8.0 13.0 0.00 0.00 0.00 45 1013.1
20260831140123 92 221 6.0 10.0 0.00 0.00 0.00 45 1013.1
20260831135622 92 188 4.0 12.0 0.00 0.00 0.00 46 1013.2
20260831135122 92 217 6.0 12.0 0.00 0.00 0.00 46 1013.2
20260831134553 92 214 6.0 12.0 0.00 0.00 0.00 46 1013.3
20260831134054 92 229 5.0 11.0 0.00 0.00 0.00 45 1013.3
20260831133544 92 259 6.0 11.0 0.00 0.00 0.00 44 1013.3
20260831133046 92 240 6.0 10.0 0.00 0.00 0.00 43 1013.3
20260831132544 92 196 5.0 10.0 0.00 0.00 0.00 46 1013.3
20260831132058 92 237 6.0 10.0 0.00 0.00 0.00 46 1013.4
20260831131559 92 215 6.0 10.0 0.00 0.00 0.00 45 1013.4
20260831131053 92 241 5.0 8.0 0.00 0.00 0.00 45 1013.4
20260831130554 92 227 5.0 9.0 0.00 0.00 0.00 46 1013.5
20260831130048 92 224 4.0 10.0 0.00 0.00 0.00 46 1013.6
20260831125549 92 213 6.0 11.0 0.00 0.00 0.00 46 1013.5
20260831125102 92 248 4.0 10.0 0.00 0.00 0.00 47 1013.7
20260831124619 93 215 4.0 10.0 0.00 0.00 0.00 47 1013.8
20260831124059 92 168 4.0 10.0 0.00 0.00 0.00 47 1013.8
20260831123552 92 188 4.0 10.0 0.00 0.00 0.00 47 1013.8
20260831123046 91 215 3.0 9.0 0.00 0.00 0.00 47 1013.9
20260831122547 91 200 6.0 11.0 0.00 0.00 0.00 47 1013.9
20260831122106 91 236 6.0 11.0 0.00 0.00 0.00 47 1014.0
20260831121621 92 227 5.0 11.0 0.00 0.00 0.00 47 1014.0
20260831121100 91 240 5.0 10.0 0.00 0.00 0.00 47 1014.0
20260831120554 91 210 6.0 10.0 0.00 0.00 0.00 46 1014.0
20260831120055 91 235 5.0 10.0 0.00 0.00 0.00 46 1014.1
20260831115549 91 254 4.0 10.0 0.00 0.00 0.00 45 1014.1
20260831115050 92 214 4.0 7.0 0.00 0.00 0.00 46 1014.0
20260831114543 91 151 3.0 7.0 0.00 0.00 0.00 46 1014.1
20260831114044 91 242 2.0 8.0 0.00 0.00 0.00 47 1014.2
20260831113558 91 229 4.0 9.0 0.00 0.00 0.00 47 1014.2
20260831113059 91 261 4.0 8.0 0.00 0.00 0.00 48 1014.3
20260831112620 91 279 3.0 8.0 0.00 0.00 0.00 46 1014.3
20260831112113 91 245 5.0 9.0 0.00 0.00 0.00 47 1014.4
20260831111613 90 207 2.0 11.0 0.00 0.00 0.00 46 1014.3
20260831111053 90 240 6.0 11.0 0.00 0.00 0.00 46 1014.4
20260831110546 91 246 6.0 9.0 0.00 0.00 0.00 47 1014.3
20260831110047 90 205 2.0 8.0 0.00 0.00 0.00 47 1014.3
20260831105600 90 196 3.0 8.0 0.00 0.00 0.00 47 1014.4
20260831105101 90 205 5.0 10.0 0.00 0.00 0.00 47 1014.4
20260831104601 90 255 6.0 9.0 0.00 0.00 0.00 47 1014.4
20260831104053 90 253 5.0 9.0 0.00 0.00 0.00 47 1014.4
20260831103611 90 180 4.0 9.0 0.00 0.00 0.00 48 1014.5
20260831103050 89 242 5.0 8.0 0.00 0.00 0.00 47 1014.6
20260831102543 89 211 3.0 6.0 0.00 0.00 0.00 49 1014.5
20260831102106 89 209 3.0 8.0 0.00 0.00 0.00 50 1014.6
20260831101558 89 216 4.0 9.0 0.00 0.00 0.00 50 1014.6
20260831101052 89 205 2.0 10.0 0.00 0.00 0.00 52 1014.6
20260831100613 89 232 6.0 10.0 0.00 0.00 0.00 51 1014.6
20260831100053 88 183 1.0 8.0 0.00 0.00 0.00 52 1014.6
20260831095608 88 228 4.0 8.0 0.00 0.00 0.00 50 1014.7
20260831095048 88 227 6.0 9.0 0.00 0.00 0.00 49 1014.7
20260831094542 88 186 3.0 6.0 0.00 0.00 0.00 54 1014.7
20260831094044 88 246 1.0 7.0 0.00 0.00 0.00 55 1014.8
20260831093605 88 236 4.0 7.0 0.00 0.00 0.00 54 1014.8
20260831093059 88 237 4.0 6.0 0.00 0.00 0.00 53 1014.8
20260831092552 88 188 1.0 5.0 0.00 0.00 0.00 55 1014.9
20260831092053 88 190 2.0 4.0 0.00 0.00 0.00 55 1015.0
20260831091547 88 157 0.0 5.0 0.00 0.00 0.00 55 1015.0
20260831091049 87 153 1.0 5.0 0.00 0.00 0.00 55 1015.0
20260831090542 87 228 1.0 4.0 0.00 0.00 0.00 55 1015.0
20260831090043 87 200 3.0 4.0 0.00 0.00 0.00 55 1015.0
20260831085606 86 196 2.0 6.0 0.00 0.00 0.00 56 1015.0
20260831085058 86 188 2.0 6.0 0.00 0.00 0.00 57 1015.0
20260831084619 86 111 1.0 3.0 0.00 0.00 0.00 57 1015.0
20260831084051 86 110 0.0 3.0 0.00 0.00 0.00 56 1015.0
20260831083551 85 109 2.0 3.0 0.00 0.00 0.00 56 1015.0
20260831083045 85 90 1.0 2.0 0.00 0.00 0.00 55 1015.0
20260831082606 84 88 1.0 2.0 0.00 0.00 0.00 57 1014.9
20260831082100 83 17 0.0 3.0 0.00 0.00 0.00 59 1014.9
20260831081619 83 16 0.0 2.0 0.00 0.00 0.00 62 1014.9
20260831081055 83 16 1.0 2.0 0.00 0.00 0.00 63 1014.9
20260831080548 82 17 0.0 2.0 0.00 0.00 0.00 63 1014.8
20260831080048 82 17 0.0 1.0 0.00 0.00 0.00 64 1014.8
20260831075609 81 17 0.0 3.0 0.00 0.00 0.00 64 1014.8
20260831075043 81 17 1.0 3.0 0.00 0.00 0.00 65 1014.8
20260831074557 80 20 1.0 3.0 0.00 0.00 0.00 66 1014.8
20260831074057 80 30 0.0 2.0 0.00 0.00 0.00 66 1014.7
20260831073554 79 30 1.0 2.0 0.00 0.00 0.00 67 1014.7
20260831073116 79 30 1.0 2.0 0.00 0.00 0.00 67 1014.7
20260831072607 78 31 0.0 2.0 0.00 0.00 0.00 68 1014.7
20260831072047 78 33 0.0 3.0 0.00 0.00 0.00 69 1014.7
20260831071605 77 33 1.0 3.0 0.00 0.00 0.00 69 1014.6
20260831071057 77 33 1.0 2.0 0.00 0.00 0.00 69 1014.6
20260831070558 77 31 1.0 3.0 0.00 0.00 0.00 70 1014.6
20260831070053 76 5 0.0 4.0 0.00 0.00 0.00 72 1014.6
20260831065614 76 10 2.0 4.0 0.00 0.00 0.00 71 1014.6
20260831065047 76 355 2.0 3.0 0.00 0.00 0.00 71 1014.6
20260831064547 75 335 1.0 4.0 0.00 0.00 0.00 72 1014.6
20260831064107 75 327 2.0 4.0 0.00 0.00 0.00 72 1014.6
20260831063630 75 346 2.0 4.0 0.00 0.00 0.00 72 1014.5
20260831063101 74 298 2.0 3.0 0.00 0.00 0.00 73 1014.5
20260831062555 74 295 1.0 3.0 0.00 0.00 0.00 75 1014.5
20260831062056 73 293 2.0 3.0 0.00 0.00 0.00 76 1014.6
20260831061550 73 292 0.0 4.0 0.00 0.00 0.00 77 1014.5
20260831061050 73 292 2.0 4.0 0.00 0.00 0.00 77 1014.6
20260831060551 72 285 1.0 2.0 0.00 0.00 0.00 78 1014.6
20260831060045 72 285 0.0 3.0 0.00 0.00 0.00 78 1014.5
20260831055545 72 284 1.0 2.0 0.00 0.00 0.00 78 1014.4
20260831055105 71 284 1.0 3.0 0.00 0.00 0.00 78 1014.4
20260831054558 71 283 1.0 3.0 0.00 0.00 0.00 78 1014.4
20260831054052 71 282 0.0 1.0 0.00 0.00 0.00 78 1014.4
20260831053553 71 282 0.0 1.0 0.00 0.00 0.00 79 1014.4
20260831053053 70 282 0.0 0.0 0.00 0.00 0.00 79 1014.3
20260831052616 70 282 0.0 0.0 0.00 0.00 0.00 79 1014.3
20260831052047 70 282 0.0 0.0 0.00 0.00 0.00 80 1014.3
20260831051608 70 282 0.0 0.0 0.00 0.00 0.00 80 1014.2
20260831051043 70 282 0.0 0.0 0.00 0.00 0.00 80 1014.2
20260831050604 70 282 0.0 2.0 0.00 0.00 0.00 80 1014.2
20260831050057 70 282 0.0 2.0 0.00 0.00 0.00 80 1014.2
20260831045559 70 282 0.0 2.0 0.00 0.00 0.00 80 1014.1
20260831045052 69 282 0.0 2.0 0.00 0.00 0.00 80 1014.1
20260831044548 69 282 1.0 2.0 0.00 0.00 0.00 80 1014.1
20260831044048 69 281 0.0 2.0 0.00 0.00 0.00 80 1014.1
20260831043609 69 281 1.0 2.0 0.00 0.00 0.00 80 1014.1
20260831043042 69 279 1.0 2.0 0.00 0.00 0.00 80 1014.0
20260831042549 69 279 0.0 3.0 0.00 0.00 0.00 80 1014.1
20260831042043 69 277 0.0 3.0 0.00 0.00 0.00 81 1014.1